SWA1143 KBNA-KSAT

Flight info

Callsign SWA1143
Flight time 2h 15m
Altitude 32000
Route DRURY4 JALAR CLOUT MHZ AEX CAAGE QERVO3
Aircraft B738/M-SDE2E3GIJ4RWZ/LB1D1

Departure

Time 2026-05-08 11:55
Airport Nashville International Airport (KBNA)

Arrival

Time 2026-05-08 14:10
Airport San Antonio International Airport (KSAT)
Time Latitude Longitude Altitude Speed Heading
2026-05-08 11:20 36.13310 -86.67163 568 ft 0 kts 205°
2026-05-08 11:44 36.13310 -86.67162 568 ft 2 kts 205°
2026-05-08 11:44 36.13324 -86.67154 573 ft 4 kts 220°
2026-05-08 11:44 36.13336 -86.67130 567 ft 4 kts 278°
2026-05-08 11:45 36.13334 -86.67121 567 ft 0 kts 288°
2026-05-08 11:48 36.13335 -86.67122 567 ft 1 kts 287°
2026-05-08 11:48 36.13342 -86.67152 567 ft 7 kts 287°
2026-05-08 11:48 36.13388 -86.67220 566 ft 13 kts 309°
2026-05-08 11:49 36.13378 -86.67320 567 ft 14 kts 209°
2026-05-08 11:49 36.13290 -86.67358 569 ft 13 kts 190°
2026-05-08 11:49 36.13200 -86.67368 569 ft 13 kts 182°
2026-05-08 11:49 36.13111 -86.67377 567 ft 13 kts 185°
2026-05-08 11:50 36.13023 -86.67363 566 ft 13 kts 157°
2026-05-08 11:50 36.12947 -86.67299 566 ft 13 kts 141°
2026-05-08 11:50 36.12860 -86.67267 571 ft 14 kts 199°
2026-05-08 11:50 36.12785 -86.67351 573 ft 15 kts 227°
2026-05-08 11:51 36.12730 -86.67403 569 ft 8 kts 201°
2026-05-08 11:51 36.12682 -86.67396 571 ft 7 kts 130°
2026-05-08 11:51 36.12651 -86.67346 573 ft 7 kts 128°
2026-05-08 11:51 36.12619 -86.67299 571 ft 8 kts 136°
2026-05-08 11:52 36.12560 -86.67284 570 ft 10 kts 210°
2026-05-08 11:52 36.12508 -86.67348 573 ft 11 kts 225°
2026-05-08 11:52 36.12451 -86.67410 570 ft 11 kts 219°
2026-05-08 11:52 36.12393 -86.67466 572 ft 11 kts 217°
2026-05-08 11:53 36.12335 -86.67531 572 ft 13 kts 224°
2026-05-08 11:53 36.12285 -86.67615 572 ft 10 kts 272°
2026-05-08 11:53 36.12319 -86.67684 573 ft 10 kts 313°
2026-05-08 11:53 36.12356 -86.67756 568 ft 11 kts 289°
2026-05-08 11:54 36.12386 -86.67867 567 ft 16 kts 288°
2026-05-08 11:54 36.12367 -86.67984 563 ft 15 kts 204°
2026-05-08 11:54 36.12343 -86.67994 565 ft 0 kts 198°
2026-05-08 11:55 36.12255 -86.68030 563 ft 52 kts 198°
2026-05-08 11:55 36.11662 -86.68267 580 ft 124 kts 198°
2026-05-08 11:55 36.10649 -86.68666 673 ft 177 kts 197°
2026-05-08 11:55 36.09407 -86.69163 1406 ft 191 kts 198°
2026-05-08 11:56 36.08058 -86.69679 2004 ft 218 kts 195°
2026-05-08 11:56 36.06488 -86.70252 2273 ft 253 kts 196°
2026-05-08 11:56 36.04754 -86.70891 3089 ft 264 kts 197°
2026-05-08 11:56 36.02983 -86.71553 4110 ft 268 kts 197°
2026-05-08 11:57 36.01186 -86.72231 5137 ft 272 kts 197°
2026-05-08 11:57 35.99371 -86.72919 6149 ft 275 kts 198°
2026-05-08 11:57 35.97532 -86.73617 7135 ft 278 kts 199°
2026-05-08 11:57 35.95679 -86.74340 8073 ft 281 kts 205°
2026-05-08 11:58 35.94103 -86.75687 9002 ft 275 kts 233°
2026-05-08 11:58 35.92996 -86.77584 10054 ft 272 kts 241°
2026-05-08 11:58 35.91977 -86.79557 10690 ft 286 kts 242°
2026-05-08 11:59 35.89664 -86.84121 11093 ft 340 kts 241°
2026-05-08 11:59 35.88356 -86.86667 11347 ft 361 kts 241°
2026-05-08 11:59 35.86984 -86.89309 11953 ft 368 kts 240°
2026-05-08 11:59 35.85592 -86.91970 12735 ft 371 kts 240°
2026-05-08 12:00 35.84190 -86.94648 13518 ft 373 kts 241°
2026-05-08 12:00 35.82773 -86.97356 14208 ft 377 kts 241°
2026-05-08 12:00 35.81356 -87.00061 14871 ft 379 kts 241°
2026-05-08 12:00 35.80109 -87.02440 15540 ft 379 kts 241°
2026-05-08 12:01 35.78483 -87.05011 16279 ft 388 kts 227°
2026-05-08 12:01 35.76262 -87.06973 17005 ft 395 kts 218°
2026-05-08 12:01 35.73938 -87.08785 17690 ft 397 kts 218°
2026-05-08 12:01 35.71597 -87.10617 18303 ft 400 kts 218°
2026-05-08 12:02 35.69249 -87.12473 18866 ft 402 kts 219°
2026-05-08 12:02 35.66898 -87.14348 19449 ft 403 kts 219°
2026-05-08 12:02 35.64536 -87.16238 20003 ft 405 kts 219°
2026-05-08 12:02 35.62972 -87.17489 20373 ft 406 kts 219°
2026-05-08 12:03 35.60534 -87.19277 20929 ft 411 kts 216°
2026-05-08 12:03 35.57994 -87.20929 21474 ft 414 kts 214°
2026-05-08 12:03 35.54538 -87.23074 22162 ft 417 kts 214°
2026-05-08 12:03 35.52819 -87.24136 22494 ft 419 kts 214°
2026-05-08 12:04 35.50220 -87.25754 22979 ft 420 kts 214°
2026-05-08 12:04 35.46761 -87.27933 23541 ft 423 kts 215°
2026-05-08 12:04 35.44995 -87.29054 23833 ft 424 kts 215°
2026-05-08 12:04 35.42377 -87.30721 24243 ft 424 kts 216°
2026-05-08 12:05 35.39762 -87.32390 24653 ft 424 kts 216°
2026-05-08 12:05 35.37139 -87.34066 25036 ft 425 kts 216°
2026-05-08 12:05 35.34514 -87.35742 25414 ft 426 kts 217°
2026-05-08 12:05 35.31889 -87.37417 25772 ft 427 kts 217°
2026-05-08 12:06 35.29250 -87.39100 26107 ft 428 kts 217°
2026-05-08 12:06 35.26637 -87.40764 26438 ft 429 kts 217°
2026-05-08 12:06 35.23990 -87.42449 26775 ft 430 kts 217°
2026-05-08 12:06 35.21332 -87.44139 27071 ft 431 kts 217°
2026-05-08 12:07 35.18674 -87.45827 27426 ft 430 kts 217°
2026-05-08 12:07 35.16026 -87.47505 27863 ft 427 kts 218°
2026-05-08 12:07 35.13404 -87.49165 28331 ft 424 kts 218°
2026-05-08 12:07 35.10797 -87.50817 28801 ft 421 kts 218°
2026-05-08 12:08 35.08207 -87.52460 29271 ft 418 kts 219°
2026-05-08 12:08 35.05630 -87.54093 29762 ft 416 kts 219°
2026-05-08 12:08 35.03074 -87.55709 30243 ft 413 kts 219°
2026-05-08 12:08 35.00557 -87.57350 30657 ft 405 kts 223°
2026-05-08 12:09 34.98246 -87.59222 31045 ft 397 kts 226°
2026-05-08 12:09 34.96011 -87.61183 31388 ft 394 kts 227°
2026-05-08 12:09 34.93805 -87.63163 31642 ft 396 kts 227°
2026-05-08 12:09 34.91587 -87.65153 31947 ft 395 kts 227°
2026-05-08 12:10 34.89361 -87.67135 32098 ft 398 kts 226°
2026-05-08 12:10 34.87120 -87.69114 32113 ft 398 kts 226°
2026-05-08 12:10 34.82648 -87.73013 32117 ft 392 kts 226°
2026-05-08 12:11 34.78218 -87.76853 32117 ft 391 kts 226°
2026-05-08 12:11 34.73815 -87.80666 32122 ft 391 kts 226°
2026-05-08 12:12 34.69381 -87.84503 32161 ft 396 kts 226°
2026-05-08 12:12 34.67135 -87.86443 32470 ft 395 kts 226°
2026-05-08 12:12 34.64907 -87.88361 32877 ft 392 kts 226°
2026-05-08 12:13 34.62691 -87.90265 33319 ft 388 kts 226°
2026-05-08 12:13 34.60501 -87.92147 33770 ft 384 kts 226°
2026-05-08 12:13 34.58326 -87.94017 34181 ft 382 kts 226°
2026-05-08 12:13 34.56167 -87.95875 34493 ft 380 kts 226°
2026-05-08 12:14 34.54008 -87.97732 34804 ft 379 kts 226°
2026-05-08 12:14 34.51867 -87.99572 35144 ft 377 kts 227°
2026-05-08 12:14 34.49814 -88.01336 35469 ft 375 kts 227°
2026-05-08 12:14 34.47693 -88.03155 35793 ft 373 kts 227°
2026-05-08 12:15 34.45579 -88.04969 36059 ft 372 kts 227°
2026-05-08 12:15 34.43468 -88.06780 36334 ft 371 kts 227°
2026-05-08 12:15 34.41364 -88.08583 36624 ft 370 kts 227°
2026-05-08 12:15 34.39273 -88.10373 36959 ft 367 kts 227°
2026-05-08 12:16 34.37194 -88.12149 37316 ft 364 kts 227°
2026-05-08 12:16 34.35131 -88.13912 37593 ft 363 kts 227°
2026-05-08 12:16 34.33074 -88.15670 37860 ft 362 kts 227°
2026-05-08 12:16 34.31020 -88.17425 38099 ft 361 kts 227°
2026-05-08 12:17 34.26914 -88.20932 38077 ft 360 kts 227°
2026-05-08 12:17 34.22867 -88.24373 38079 ft 353 kts 227°
2026-05-08 12:18 34.18889 -88.27760 38045 ft 351 kts 227°
2026-05-08 12:18 34.14910 -88.31147 38071 ft 350 kts 227°
2026-05-08 12:19 34.10926 -88.34533 38079 ft 351 kts 227°
2026-05-08 12:19 34.06919 -88.37934 38072 ft 353 kts 227°
2026-05-08 12:20 34.02897 -88.41343 38073 ft 355 kts 227°
2026-05-08 12:20 33.98851 -88.44767 38065 ft 357 kts 227°
2026-05-08 12:21 33.94776 -88.48210 38074 ft 358 kts 226°
2026-05-08 12:21 33.90700 -88.51648 38055 ft 358 kts 226°
2026-05-08 12:22 33.86618 -88.55088 38070 ft 358 kts 226°
2026-05-08 12:22 33.82536 -88.58525 38071 ft 358 kts 226°
2026-05-08 12:23 33.78458 -88.61955 38071 ft 357 kts 226°
2026-05-08 12:23 33.74386 -88.65375 38087 ft 357 kts 226°
2026-05-08 12:24 33.70315 -88.68791 38084 ft 356 kts 226°
2026-05-08 12:24 33.66252 -88.72197 38056 ft 355 kts 226°
2026-05-08 12:25 33.62202 -88.75587 38091 ft 355 kts 226°
2026-05-08 12:25 33.58159 -88.78969 38099 ft 355 kts 226°
2026-05-08 12:26 33.54106 -88.82356 38101 ft 355 kts 226°
2026-05-08 12:26 33.50053 -88.85737 38096 ft 355 kts 226°
2026-05-08 12:27 33.46340 -88.89475 38106 ft 344 kts 234°
2026-05-08 12:27 33.42973 -88.93505 38099 ft 345 kts 234°
2026-05-08 12:28 33.39573 -88.97562 38101 ft 345 kts 233°
2026-05-08 12:28 33.36236 -89.01531 38094 ft 345 kts 233°
2026-05-08 12:29 33.32831 -89.05572 38089 ft 345 kts 233°
2026-05-08 12:29 33.29417 -89.09615 38128 ft 345 kts 233°
2026-05-08 12:30 33.26005 -89.13653 38128 ft 345 kts 233°
2026-05-08 12:30 33.22592 -89.17687 38129 ft 345 kts 233°
2026-05-08 12:31 33.19180 -89.21714 38122 ft 345 kts 233°
2026-05-08 12:31 33.15765 -89.25741 38122 ft 345 kts 233°
2026-05-08 12:32 33.12357 -89.29753 38082 ft 344 kts 233°
2026-05-08 12:32 33.08957 -89.33753 38083 ft 343 kts 233°
2026-05-08 12:33 33.05552 -89.37755 38064 ft 344 kts 233°
2026-05-08 12:33 33.02150 -89.41747 38038 ft 344 kts 233°
2026-05-08 12:34 32.98743 -89.45742 38032 ft 344 kts 233°
2026-05-08 12:34 32.95332 -89.49736 38028 ft 344 kts 233°
2026-05-08 12:35 32.91917 -89.53731 38025 ft 344 kts 233°
2026-05-08 12:35 32.88500 -89.57723 38011 ft 344 kts 233°
2026-05-08 12:36 32.85088 -89.61705 38031 ft 344 kts 232°
2026-05-08 12:36 32.81669 -89.65690 38034 ft 344 kts 232°
2026-05-08 12:37 32.78244 -89.69678 38046 ft 345 kts 232°
2026-05-08 12:37 32.74814 -89.73668 38051 ft 345 kts 232°
2026-05-08 12:38 32.71374 -89.77664 38050 ft 346 kts 232°
2026-05-08 12:38 32.67928 -89.81663 38042 ft 347 kts 232°
2026-05-08 12:39 32.64472 -89.85669 38038 ft 347 kts 232°
2026-05-08 12:39 32.61012 -89.89674 37999 ft 348 kts 232°
2026-05-08 12:40 32.57550 -89.93679 38042 ft 349 kts 232°
2026-05-08 12:40 32.54063 -89.97708 38041 ft 351 kts 232°
2026-05-08 12:41 32.50633 -90.01666 38105 ft 351 kts 232°
2026-05-08 12:41 32.47130 -90.05704 38088 ft 351 kts 232°
2026-05-08 12:42 32.43778 -90.09855 38095 ft 345 kts 237°
2026-05-08 12:42 32.41196 -90.14561 38094 ft 340 kts 244°
2026-05-08 12:43 32.38887 -90.19434 38090 ft 339 kts 244°
2026-05-08 12:43 32.36581 -90.24301 38084 ft 339 kts 244°
2026-05-08 12:44 32.34273 -90.29155 38041 ft 339 kts 244°
2026-05-08 12:44 32.31959 -90.34008 38062 ft 340 kts 244°
2026-05-08 12:45 32.29628 -90.38887 38078 ft 342 kts 244°
2026-05-08 12:45 32.27277 -90.43799 38074 ft 344 kts 243°
2026-05-08 12:46 32.24921 -90.48715 38076 ft 344 kts 243°
2026-05-08 12:46 32.22561 -90.53630 38070 ft 344 kts 243°
2026-05-08 12:47 32.20195 -90.58553 38065 ft 344 kts 243°
2026-05-08 12:47 32.17833 -90.63462 38066 ft 344 kts 243°
2026-05-08 12:48 32.15483 -90.68340 38059 ft 344 kts 243°
2026-05-08 12:48 32.13107 -90.73264 38056 ft 343 kts 243°
2026-05-08 12:49 32.10745 -90.78152 38049 ft 343 kts 243°
2026-05-08 12:49 32.08400 -90.83000 38056 ft 342 kts 243°
2026-05-08 12:50 32.06039 -90.87876 38047 ft 342 kts 243°
2026-05-08 12:50 32.03672 -90.92755 38059 ft 343 kts 243°
2026-05-08 12:51 32.00519 -90.99247 38061 ft 343 kts 243°
2026-05-08 12:52 31.98195 -91.04025 38061 ft 344 kts 243°
2026-05-08 12:52 31.94623 -91.11355 38062 ft 344 kts 243°
2026-05-08 12:53 31.92238 -91.16241 38070 ft 344 kts 242°
2026-05-08 12:53 31.89854 -91.21120 38056 ft 344 kts 242°
2026-05-08 12:54 31.87469 -91.25994 38073 ft 344 kts 242°
2026-05-08 12:54 31.85081 -91.30868 38067 ft 343 kts 242°
2026-05-08 12:55 31.82695 -91.35732 38064 ft 343 kts 242°
2026-05-08 12:55 31.80310 -91.40587 38060 ft 343 kts 242°
2026-05-08 12:56 31.77921 -91.45443 38043 ft 343 kts 242°
2026-05-08 12:56 31.75525 -91.50308 38055 ft 345 kts 242°
2026-05-08 12:57 31.73117 -91.55192 38042 ft 346 kts 242°
2026-05-08 12:57 31.70692 -91.60103 38056 ft 348 kts 242°
2026-05-08 12:58 31.68252 -91.65038 38053 ft 350 kts 242°
2026-05-08 12:58 31.65801 -91.69989 38050 ft 351 kts 242°
2026-05-08 12:59 31.63341 -91.74952 38049 ft 352 kts 242°
2026-05-08 12:59 31.60875 -91.79919 38043 ft 352 kts 242°
2026-05-08 13:00 31.58411 -91.84877 38045 ft 352 kts 242°
2026-05-08 13:00 31.55946 -91.89829 38046 ft 352 kts 242°
2026-05-08 13:01 31.53480 -91.94778 38040 ft 351 kts 241°
2026-05-08 13:01 31.51015 -91.99718 38040 ft 351 kts 241°
2026-05-08 13:02 31.48597 -92.04559 38020 ft 352 kts 242°
2026-05-08 13:02 31.46107 -92.09537 38034 ft 355 kts 242°
2026-05-08 13:03 31.43593 -92.14557 38040 ft 359 kts 241°
2026-05-08 13:03 31.41069 -92.19591 38042 ft 362 kts 241°
2026-05-08 13:04 31.38514 -92.24679 38036 ft 363 kts 241°
2026-05-08 13:04 31.35945 -92.29787 38054 ft 364 kts 241°
2026-05-08 13:05 31.33381 -92.34879 38044 ft 362 kts 240°
2026-05-08 13:05 31.30832 -92.39935 38035 ft 360 kts 240°
2026-05-08 13:06 31.28294 -92.44965 38032 ft 358 kts 240°
2026-05-08 13:06 31.25764 -92.49978 38042 ft 357 kts 241°
2026-05-08 13:07 31.23439 -92.55117 38033 ft 357 kts 243°
2026-05-08 13:07 31.21184 -92.60274 37978 ft 356 kts 244°
2026-05-08 13:08 31.18908 -92.65466 38033 ft 363 kts 244°
2026-05-08 13:08 31.16581 -92.70747 38046 ft 366 kts 243°
2026-05-08 13:09 31.14249 -92.76019 38047 ft 365 kts 243°
2026-05-08 13:09 31.11916 -92.81280 38047 ft 364 kts 243°
2026-05-08 13:10 31.09587 -92.86527 38038 ft 364 kts 243°
2026-05-08 13:10 31.07271 -92.91736 38020 ft 364 kts 243°
2026-05-08 13:11 31.04939 -92.96973 38020 ft 364 kts 243°
2026-05-08 13:11 31.02650 -93.02108 38012 ft 364 kts 243°
2026-05-08 13:12 31.00313 -93.07342 38002 ft 364 kts 243°
2026-05-08 13:12 30.97976 -93.12570 38012 ft 364 kts 243°
2026-05-08 13:13 30.95632 -93.17805 38008 ft 365 kts 243°
2026-05-08 13:13 30.93283 -93.23045 38017 ft 365 kts 243°
2026-05-08 13:14 30.90924 -93.28298 37986 ft 366 kts 243°
2026-05-08 13:14 30.88563 -93.33552 38012 ft 368 kts 243°
2026-05-08 13:15 30.86181 -93.38842 38022 ft 370 kts 243°
2026-05-08 13:15 30.83781 -93.44167 38019 ft 373 kts 243°
2026-05-08 13:16 30.81367 -93.49513 38006 ft 373 kts 243°
2026-05-08 13:16 30.78953 -93.54853 38018 ft 373 kts 243°
2026-05-08 13:17 30.76537 -93.60190 38007 ft 373 kts 243°
2026-05-08 13:17 30.74119 -93.65523 38002 ft 373 kts 243°
2026-05-08 13:18 30.71701 -93.70848 37996 ft 372 kts 243°
2026-05-08 13:18 30.69282 -93.76168 37998 ft 372 kts 243°
2026-05-08 13:19 30.66862 -93.81484 37995 ft 372 kts 243°
2026-05-08 13:19 30.64437 -93.86803 38001 ft 373 kts 243°
2026-05-08 13:20 30.62025 -93.92086 38001 ft 373 kts 243°
2026-05-08 13:20 30.59591 -93.97409 37996 ft 373 kts 243°
2026-05-08 13:21 30.57217 -94.02594 37998 ft 373 kts 243°
2026-05-08 13:21 30.54779 -94.07912 38002 ft 374 kts 243°
2026-05-08 13:22 30.52335 -94.13237 38000 ft 374 kts 243°
2026-05-08 13:22 30.49888 -94.18559 38002 ft 374 kts 243°
2026-05-08 13:23 30.47441 -94.23874 38008 ft 373 kts 243°
2026-05-08 13:23 30.44998 -94.29173 37999 ft 372 kts 243°
2026-05-08 13:24 30.42558 -94.34459 38004 ft 372 kts 243°
2026-05-08 13:24 30.40117 -94.39739 37998 ft 371 kts 243°
2026-05-08 13:25 30.37677 -94.45012 37998 ft 371 kts 242°
2026-05-08 13:25 30.35232 -94.50286 37999 ft 371 kts 242°
2026-05-08 13:26 30.32790 -94.55548 37998 ft 371 kts 242°
2026-05-08 13:26 30.30344 -94.60810 38005 ft 371 kts 243°
2026-05-08 13:27 30.27894 -94.66073 38011 ft 371 kts 243°
2026-05-08 13:27 30.25443 -94.71333 38002 ft 372 kts 243°
2026-05-08 13:28 30.22986 -94.76598 38005 ft 372 kts 243°
2026-05-08 13:28 30.20523 -94.81868 38001 ft 372 kts 243°
2026-05-08 13:29 30.18061 -94.87129 37999 ft 372 kts 243°
2026-05-08 13:29 30.15594 -94.92394 38004 ft 372 kts 242°
2026-05-08 13:30 30.13142 -94.97621 37999 ft 373 kts 242°
2026-05-08 13:30 30.10715 -95.02787 38008 ft 374 kts 242°
2026-05-08 13:31 30.08228 -95.08072 38003 ft 375 kts 242°
2026-05-08 13:31 30.05731 -95.13374 38005 ft 377 kts 242°
2026-05-08 13:32 30.03226 -95.18686 37998 ft 376 kts 242°
2026-05-08 13:32 30.00728 -95.23976 37981 ft 375 kts 242°
2026-05-08 13:33 29.98248 -95.29217 37994 ft 372 kts 242°
2026-05-08 13:33 29.96423 -95.34767 38015 ft 372 kts 253°
2026-05-08 13:34 29.95571 -95.40649 37998 ft 376 kts 263°
2026-05-08 13:34 29.95474 -95.46680 38000 ft 376 kts 264°
2026-05-08 13:35 29.95408 -95.52709 37998 ft 376 kts 264°
2026-05-08 13:35 29.95329 -95.58728 37994 ft 376 kts 264°
2026-05-08 13:36 29.95237 -95.64752 37939 ft 376 kts 264°
2026-05-08 13:36 29.95139 -95.70770 37957 ft 376 kts 264°
2026-05-08 13:37 29.95037 -95.76798 37982 ft 375 kts 263°
2026-05-08 13:37 29.94950 -95.81796 37963 ft 375 kts 263°
2026-05-08 13:38 29.94844 -95.87797 37975 ft 374 kts 263°
2026-05-08 13:38 29.94734 -95.93790 37979 ft 374 kts 263°
2026-05-08 13:39 29.94622 -95.99787 37968 ft 374 kts 263°
2026-05-08 13:39 29.94509 -96.05657 37934 ft 374 kts 263°
2026-05-08 13:40 29.94392 -96.11643 37927 ft 374 kts 263°
2026-05-08 13:40 29.94272 -96.17630 37893 ft 373 kts 263°
2026-05-08 13:41 29.94150 -96.23594 37859 ft 372 kts 263°
2026-05-08 13:41 29.94025 -96.29552 37851 ft 371 kts 263°
2026-05-08 13:42 29.93897 -96.35504 37854 ft 371 kts 263°
2026-05-08 13:42 29.93767 -96.41460 37637 ft 375 kts 263°
2026-05-08 13:43 29.93699 -96.44472 37107 ft 374 kts 263°
2026-05-08 13:43 29.93634 -96.47441 36632 ft 369 kts 263°
2026-05-08 13:43 29.93569 -96.50388 36031 ft 368 kts 263°
2026-05-08 13:43 29.93503 -96.53327 35411 ft 366 kts 263°
2026-05-08 13:44 29.93435 -96.56258 34804 ft 366 kts 262°
2026-05-08 13:44 29.93364 -96.59184 34153 ft 376 kts 262°
2026-05-08 13:44 29.93285 -96.62261 33389 ft 390 kts 262°
2026-05-08 13:44 29.93207 -96.65434 32703 ft 389 kts 263°
2026-05-08 13:45 29.93137 -96.68486 32230 ft 383 kts 263°
2026-05-08 13:45 29.93068 -96.71534 31765 ft 377 kts 263°
2026-05-08 13:45 29.92999 -96.74529 31301 ft 371 kts 263°
2026-05-08 13:45 29.92927 -96.77497 30855 ft 372 kts 263°
2026-05-08 13:46 29.92848 -96.80516 30392 ft 381 kts 263°
2026-05-08 13:46 29.92769 -96.83557 29879 ft 377 kts 263°
2026-05-08 13:46 29.92695 -96.86561 29370 ft 372 kts 263°
2026-05-08 13:46 29.92621 -96.89518 28851 ft 367 kts 263°
2026-05-08 13:47 29.92547 -96.92436 28363 ft 362 kts 263°
2026-05-08 13:47 29.92473 -96.95317 27883 ft 357 kts 263°
2026-05-08 13:47 29.92397 -96.98175 27435 ft 359 kts 263°
2026-05-08 13:47 29.92319 -97.00974 27002 ft 369 kts 264°
2026-05-08 13:48 29.92239 -97.03912 26511 ft 365 kts 264°
2026-05-08 13:48 29.92162 -97.06818 26034 ft 360 kts 264°
2026-05-08 13:48 29.92085 -97.09682 25567 ft 356 kts 264°
2026-05-08 13:48 29.92008 -97.12527 25090 ft 354 kts 265°
2026-05-08 13:49 29.91931 -97.15347 24619 ft 352 kts 265°
2026-05-08 13:49 29.91851 -97.18184 24183 ft 356 kts 265°
2026-05-08 13:49 29.91771 -97.21023 23699 ft 353 kts 265°
2026-05-08 13:49 29.91691 -97.23842 23176 ft 350 kts 265°
2026-05-08 13:50 29.91613 -97.26627 22683 ft 345 kts 266°
2026-05-08 13:50 29.91535 -97.29372 22216 ft 340 kts 266°
2026-05-08 13:50 29.91457 -97.32086 21795 ft 338 kts 266°
2026-05-08 13:50 29.91378 -97.34786 21355 ft 335 kts 266°
2026-05-08 13:51 29.91299 -97.37477 20930 ft 338 kts 266°
2026-05-08 13:51 29.91218 -97.40194 20492 ft 341 kts 266°
2026-05-08 13:51 29.91137 -97.42914 20049 ft 338 kts 266°
2026-05-08 13:51 29.91057 -97.45609 19613 ft 334 kts 266°
2026-05-08 13:52 29.90978 -97.48265 19182 ft 331 kts 266°
2026-05-08 13:52 29.90898 -97.50909 18765 ft 330 kts 266°
2026-05-08 13:52 29.90817 -97.53555 18343 ft 330 kts 266°
2026-05-08 13:52 29.90736 -97.56194 17862 ft 329 kts 266°
2026-05-08 13:53 29.90654 -97.58828 17422 ft 329 kts 266°
2026-05-08 13:53 29.90571 -97.61480 16987 ft 333 kts 266°
2026-05-08 13:53 29.90487 -97.64152 16554 ft 334 kts 266°
2026-05-08 13:53 29.90404 -97.66816 16121 ft 330 kts 266°
2026-05-08 13:54 29.90321 -97.69437 15705 ft 327 kts 267°
2026-05-08 13:54 29.90237 -97.72053 15296 ft 327 kts 267°
2026-05-08 13:54 29.90153 -97.74681 14877 ft 328 kts 267°
2026-05-08 13:54 29.90068 -97.77312 14453 ft 330 kts 267°
2026-05-08 13:55 29.89982 -97.79963 14017 ft 332 kts 267°
2026-05-08 13:55 29.89896 -97.82618 13572 ft 331 kts 268°
2026-05-08 13:55 29.89288 -97.87760 12815 ft 322 kts 252°
2026-05-08 13:56 29.88503 -97.90167 12527 ft 320 kts 249°
2026-05-08 13:56 29.87701 -97.92549 12233 ft 318 kts 249°
2026-05-08 13:56 29.86907 -97.94930 11937 ft 318 kts 250°
2026-05-08 13:56 29.86111 -97.97307 11653 ft 317 kts 249°
2026-05-08 13:57 29.85319 -97.99666 11365 ft 316 kts 249°
2026-05-08 13:57 29.84565 -98.01916 11063 ft 310 kts 249°
2026-05-08 13:57 29.83798 -98.04209 10786 ft 302 kts 249°
2026-05-08 13:57 29.83065 -98.06410 10502 ft 287 kts 249°
2026-05-08 13:58 29.82367 -98.08510 10246 ft 274 kts 249°
2026-05-08 13:58 29.81699 -98.10517 10003 ft 263 kts 249°
2026-05-08 13:58 29.81051 -98.12462 9771 ft 260 kts 249°
2026-05-08 13:58 29.80401 -98.14410 9526 ft 261 kts 249°
2026-05-08 13:59 29.79748 -98.16366 9274 ft 262 kts 249°
2026-05-08 13:59 29.79099 -98.18320 9033 ft 262 kts 249°
2026-05-08 13:59 29.78448 -98.20276 8802 ft 262 kts 249°
2026-05-08 13:59 29.77797 -98.22235 8554 ft 262 kts 249°
2026-05-08 14:00 29.77143 -98.24197 8311 ft 263 kts 248°
2026-05-08 14:00 29.76489 -98.26159 8077 ft 263 kts 248°
2026-05-08 14:00 29.75833 -98.28128 7834 ft 263 kts 248°
2026-05-08 14:00 29.75176 -98.30092 7596 ft 263 kts 248°
2026-05-08 14:01 29.74518 -98.32061 7358 ft 263 kts 248°
2026-05-08 14:01 29.73860 -98.34027 7110 ft 264 kts 248°
2026-05-08 14:01 29.73203 -98.35990 6874 ft 261 kts 248°
2026-05-08 14:01 29.72577 -98.37909 6611 ft 251 kts 248°
2026-05-08 14:02 29.71982 -98.39755 6387 ft 241 kts 248°
2026-05-08 14:02 29.71414 -98.41517 6152 ft 232 kts 248°
2026-05-08 14:02 29.70921 -98.43250 5930 ft 225 kts 260°
2026-05-08 14:02 29.70933 -98.45013 5825 ft 218 kts 271°
2026-05-08 14:03 29.71008 -98.46740 5684 ft 216 kts 270°
2026-05-08 14:03 29.71072 -98.48473 5558 ft 218 kts 270°
2026-05-08 14:03 29.71132 -98.50202 5424 ft 212 kts 270°
2026-05-08 14:03 29.71187 -98.51842 5260 ft 203 kts 270°
2026-05-08 14:04 29.71239 -98.53450 5125 ft 194 kts 270°
2026-05-08 14:04 29.71288 -98.54976 4994 ft 193 kts 270°
2026-05-08 14:04 29.71337 -98.56541 4871 ft 193 kts 270°
2026-05-08 14:04 29.71238 -98.58066 4723 ft 191 kts 247°
2026-05-08 14:05 29.70588 -98.59377 4610 ft 189 kts 231°
2026-05-08 14:05 29.69552 -98.60263 4444 ft 187 kts 210°
2026-05-08 14:05 29.68482 -98.61081 4284 ft 183 kts 217°
2026-05-08 14:05 29.67502 -98.61960 4165 ft 175 kts 213°
2026-05-08 14:06 29.66360 -98.62189 4030 ft 171 kts 162°
2026-05-08 14:06 29.65232 -98.61722 3845 ft 176 kts 169°
2026-05-08 14:06 29.64094 -98.61207 3627 ft 182 kts 140°
2026-05-08 14:06 29.63282 -98.60124 3445 ft 178 kts 134°
2026-05-08 14:07 29.62445 -98.59095 3217 ft 175 kts 135°
2026-05-08 14:07 29.61632 -98.58067 3002 ft 173 kts 133°
2026-05-08 14:07 29.60832 -98.57037 2775 ft 171 kts 133°
2026-05-08 14:07 29.60067 -98.56048 2554 ft 161 kts 133°
2026-05-08 14:08 29.59360 -98.55132 2381 ft 144 kts 132°
2026-05-08 14:08 29.58707 -98.54290 2170 ft 139 kts 131°
2026-05-08 14:08 29.58076 -98.53472 2006 ft 138 kts 130°
2026-05-08 14:08 29.57433 -98.52639 1821 ft 140 kts 130°
2026-05-08 14:09 29.56781 -98.51798 1618 ft 142 kts 129°
2026-05-08 14:09 29.56122 -98.50946 1426 ft 144 kts 129°
2026-05-08 14:09 29.55461 -98.50089 1229 ft 143 kts 129°
2026-05-08 14:09 29.54806 -98.49242 1035 ft 142 kts 129°
2026-05-08 14:10 29.54163 -98.48410 830 ft 140 kts 129°
2026-05-08 14:10 29.53576 -98.47656 793 ft 109 kts 130°
2026-05-08 14:10 29.53132 -98.47080 794 ft 84 kts 132°
2026-05-08 14:10 29.52905 -98.46791 786 ft 21 kts 132°
2026-05-08 14:11 29.52834 -98.46701 786 ft 11 kts 135°
2026-05-08 14:11 29.52798 -98.46700 786 ft 4 kts 234°
2026-05-08 14:11 29.52784 -98.46723 786 ft 0 kts 225°
2026-05-08 14:14 29.52778 -98.46729 786 ft 2 kts 223°
2026-05-08 14:14 29.52742 -98.46768 791 ft 11 kts 223°
2026-05-08 14:14 29.52700 -98.46829 787 ft 8 kts 263°
2026-05-08 14:14 29.52737 -98.46879 787 ft 9 kts 324°
2026-05-08 14:15 29.52780 -98.46928 787 ft 9 kts 313°
2026-05-08 14:15 29.52819 -98.46978 787 ft 8 kts 310°
2026-05-08 14:15 29.52846 -98.47031 789 ft 8 kts 274°
2026-05-08 14:15 29.52822 -98.47085 789 ft 8 kts 226°
2026-05-08 14:16 29.52801 -98.47103 789 ft 3 kts 197°
2026-05-08 14:16 29.52787 -98.47093 788 ft 3 kts 122°
2026-05-08 14:16 29.52776 -98.47076 788 ft 3 kts 128°
2026-05-08 14:16 29.52772 -98.47070 788 ft 0 kts 130°